Flag for Nigeria Weather past 2 weeks in Lagos, Nigeria

Now
91 °F

Partly sunny.


Feels Like: 103 °F
Forecast: 74 / 92 °F
Wind: 17 mph from Southwest

Location: Lagos / Ikeja

Current Time: Jan 29, 2015 at 2:24:36 PM

Latest Report: Jan 29, 2015 at 2:00 PM


Visibility: N/A

Pressure: 29.86 "Hg

Humidity: 59%

Dew point: 75 °F

Location of LagosLocation

Historic Weather in Lagos — Graph

°F

Lagos temperature yesterday

Maximum temperature yesterday: 93 °F (at 2:00 PM)
Minimum temperature yesterday: 82 °F (at 7:00 PM)
Average temperature yesterday: 87 °F

Past Weeks' High & Low Weather Summary

 TemperatureHumidityPressure
High95 °F (Jan 27, 2:00 PM)100% (Jan 25, 5:00 AM)29.95 "Hg (Jan 25, 5:00 AM)
Low77 °F (Jan 21, 5:00 AM)50% (Jan 27, 2:00 PM)29.77 "Hg (Jan 28, 5:00 PM)
Average84 °F82%29.87 "Hg
* Reported Jan 20 2:00 PM — Jan 29 1:00 PM, Lagos, Weather by CustomWeather, © 2014

Note: Actual official high and low records may vary slightly from our data, if they occured in-between our weather recording intervals... More about our weather records

Advertising

Lagos weather history for previous 24 hours

 ConditionsComfort  
Time TempWeatherWind HumidityBarometerVisibility
1:00 PM
Jan 29
90 °FPartly sunny.14 mph67%29.89 "HgN/A
12:00 PM90 °FPartly sunny.8 mph63%29.92 "HgN/A
11:00 AM88 °FPartly sunny.12 mph75%29.92 "HgN/A
9:00 AM81 °FScattered clouds.3 mph94%29.92 "Hg4 mi
8:00 AM79 °FPassing clouds.2 mph94%29.89 "Hg4 mi
7:00 AM79 °FPassing clouds.No wind94%29.86 "Hg4 mi
6:00 AM79 °FPassing clouds.No wind94%29.86 "Hg4 mi
5:00 AM79 °FPassing clouds.No wind94%29.83 "Hg4 mi
4:00 AM81 °FPassing clouds.No wind94%29.83 "Hg5 mi
3:00 AM81 °FPassing clouds.No wind94%29.83 "Hg5 mi
2:00 AM81 °FPassing clouds.5 mph94%29.86 "Hg5 mi
1:00 AM81 °FPassing clouds.9 mph94%29.86 "Hg5 mi
12:00 AM81 °FPassing clouds.8 mph94%29.89 "Hg5 mi
10:00 PM
Jan 28
82 °FPassing clouds.10 mph89%29.86 "HgN/A
9:00 PM82 °FPassing clouds.15 mph89%29.86 "HgN/A
8:00 PM82 °FPassing clouds.14 mph84%29.83 "HgN/A
7:00 PM82 °FPassing clouds.9 mph89%29.83 "HgN/A
6:00 PM86 °FPassing clouds.8 mph75%29.80 "HgN/A
5:00 PM88 °FPassing clouds.8 mph70%29.77 "HgN/A
4:00 PM91 °FPassing clouds.12 mph63%29.80 "HgN/A
3:00 PM91 °FScattered clouds.7 mph63%29.80 "HgN/A
2:00 PM93 °FPartly sunny.7 mph59%29.83 "HgN/A
Weather by CustomWeather, © 2014

See weather overviewHow to use our weather pages